Regional Weather Roundup
Issued by NWS

Home | Current Version | Previous Version | Graphics & Text | Print | Product List | Glossary On
Versions: 1 2 3 4 5 6 7 8 9 10 11 12 13 14 15 16 17 18 19 20 21 22 23 24 25 26 27
000
ASUS45 KBOI 270210
RWRID

IDAHO REGIONAL WEATHER ROUNDUP
NATIONAL WEATHER SERVICE BOISE ID
700 PM MST SUN FEB 26 2017

NOTE: "FAIR" INDICATES FEW OR NO CLOUDS BELOW 12000 FEET
WITH NO SIGNIFICANT WEATHER AND/OR OBSTRUCTIONS TO VISIBILITY

IDZ012-014-270300-
SOUTHWEST IDAHO


CITY           SKY/WX    TMP DP  RH WIND       PRES   REMARKS
BOISE          CLOUDY    32  29  88 E9        29.69F WCI  24
CALDWELL       CLOUDY    29  28  96 NE7       29.70F WCI  22
MOUNTAIN HOME  CLOUDY    34  24  67 E8        29.68S WCI  27
$$

IDZ016-017-270300-
SOUTHCENTRAL IDAHO


CITY           SKY/WX    TMP DP  RH WIND       PRES   REMARKS
BURLEY         CLOUDY    33  22  63 N3        29.66F
JEROME           N/A    N/A N/A N/A MISG      29.66F
TWIN FALLS     CLOUDY    29  20  69 S7        29.65F WCI  22
$$

IDZ019>023-270300-
SOUTHEAST IDAHO


CITY           SKY/WX    TMP DP  RH WIND       PRES   REMARKS
IDAHO FALLS    CLOUDY    25  22  88 S7        29.70F WCI  17
POCATELLO      CLOUDY    28  17  63 S16       29.69F WCI  16
REXBURG        LGT SNOW  24  23  96 SW7       29.70F FOG     WCI  16
$$

IDZ006-010-011-018-031-032-270300-
CENTRAL IDAHO MOUNTAINS


CITY           SKY/WX    TMP DP  RH WIND       PRES   REMARKS
MCCALL         LGT SNOW  22  19  89 SE6       29.56S FOG     WCI  14
HAILEY         LGT SNOW  21  19  93 CALM      29.67S
STANLEY          N/A     18  12  77 S6        29.57S WCI  10
SALMON         CLOUDY    30  16  55 E3        29.60S
CHALLIS        CLOUDY    24  12  60 S15       29.59R WCI  11
$$

IDZ002-004-006-007-026-270300-
NORTHERN IDAHO


CITY           SKY/WX    TMP DP  RH WIND       PRES   REMARKS
LEWISTON       LGT SNOW  32  32 100 SW3       29.68S FOG
LOWELL           N/A     34  32  92 CALM      29.69R
COEUR D`ALENE  LGT SNOW  29  27  92 CALM      29.65R FOG
MULLAN PASS    LGT SNOW  18  17  96 CALM      29.47S FOG
$$




USA.gov is the U.S. government's official web portal to all federal, state and local government web resources and services.